Tracking 30995 objects as of 7-Jul-2025
HD Live streaming from Space Station
objects crossing your sky now

OBJECT A

Track OBJECT A now!
10-day predictions


NORAD ID: 45939
Int'l Code: 2020-051A
Perigee: 506.0 km
Apogee: 512.3 km
Inclination: 97.3 °
Period: 94.7 minutes
Semi major axis: 6880 km
RCS: Unknown
Launch date: July 25, 2020
Source: People's Republic of China (PRC)
Launch site: Taiyaun Space Center, China (TSC)
Your satellite tracking list
Your tracking list is empty




NASA's NSSDC Master Catalog

Two Line Element Set (TLE):
1 45939U 20051A   25187.88155849  .00004115  00000-0  18705-3 0  9994
2 45939  97.3262 260.8365 0004596 144.3394 215.8150 15.21280387274858
Source of the keplerian elements: AFSPC